Location: Ay?beleni
(36.6500°N, 30.3000°E)
Time: 13:50:38
(UTC+00:00)

HJ-1C - Visible Passes

Search period start: 06 August 2020 00:00
Search period end: 16 August 2020 00:00
Orbit: 432 x 445 km, 97.2° (Epoch: 06 August)

Date Brightness Start Highest point End Pass type
(mag) Time Alt. Az. Time Alt. Az. Time Alt. Az.
06 Aug 6.7 18:13:26 10° WSW 18:14:08 10° W 18:14:51 10° W visible
07 Aug 5.1 17:32:29 10° SSW 17:35:36 35° W 17:38:43 10° NNW visible
09 Aug 6.0 17:48:49 10° SSW 17:51:27 21° W 17:54:05 10° NW visible
11 Aug 6.5 18:05:41 10° WSW 18:07:19 13° W 18:08:57 10° WNW visible
12 Aug 4.6 17:25:34 10° S 17:28:47 44° W 17:32:01 10° NNW visible
14 Aug 5.6 17:41:44 10° SSW 17:44:35 26° W 17:47:27 10° NW visible
